LHA1CQ LFRB-EGHI

Flight info

Callsign LHA1CQ
Flight time 0h 49m
Altitude 24000
Route NORBU DCT DOMOK DCT ORIST Y110 THRED
Aircraft DH8D/M-SDE1E2FGIJ1RWYZ/S

Departure

Time 2026-05-09 11:25
Airport Brest Bretagne airport (LFRB)

Arrival

Time 2026-05-09 12:15
Airport Southampton Airport (EGHI)
Time Latitude Longitude Altitude Speed Heading
2026-05-09 10:37 48.44367 -4.42183 311 ft 0 kts 155°
2026-05-09 11:15 48.44368 -4.42184 311 ft 1 kts 155°
2026-05-09 11:16 48.44382 -4.42194 311 ft 2 kts 155°
2026-05-09 11:16 48.44395 -4.42203 311 ft 2 kts 155°
2026-05-09 11:16 48.44405 -4.42209 311 ft 1 kts 154°
2026-05-09 11:16 48.44412 -4.42223 310 ft 1 kts 95°
2026-05-09 11:17 48.44408 -4.42240 310 ft 1 kts 41°
2026-05-09 11:17 48.44405 -4.42244 310 ft 0 kts 39°
2026-05-09 11:19 48.44407 -4.42243 310 ft 0 kts 40°
2026-05-09 11:19 48.44421 -4.42223 310 ft 4 kts 42°
2026-05-09 11:20 48.44450 -4.42182 311 ft 6 kts 46°
2026-05-09 11:20 48.44489 -4.42129 312 ft 8 kts 36°
2026-05-09 11:20 48.44506 -4.42111 311 ft 0 kts 32°
2026-05-09 11:21 48.44513 -4.42105 311 ft 3 kts 28°
2026-05-09 11:21 48.44558 -4.42098 310 ft 9 kts 347°
2026-05-09 11:21 48.44607 -4.42120 310 ft 6 kts 341°
2026-05-09 11:22 48.44669 -4.42155 309 ft 12 kts 332°
2026-05-09 11:22 48.44683 -4.42300 306 ft 18 kts 253°
2026-05-09 11:22 48.44640 -4.42508 305 ft 22 kts 250°
2026-05-09 11:22 48.44579 -4.42750 300 ft 26 kts 248°
2026-05-09 11:23 48.44516 -4.43023 295 ft 28 kts 251°
2026-05-09 11:23 48.44450 -4.43317 293 ft 29 kts 251°
2026-05-09 11:23 48.44392 -4.43594 290 ft 22 kts 252°
2026-05-09 11:23 48.44381 -4.43772 287 ft 10 kts 283°
2026-05-09 11:24 48.44340 -4.43785 287 ft 9 kts 69°
2026-05-09 11:24 48.44368 -4.43708 288 ft 5 kts 71°
2026-05-09 11:24 48.44369 -4.43704 288 ft 0 kts 71°
2026-05-09 11:25 48.44455 -4.43342 292 ft 79 kts 75°
2026-05-09 11:25 48.44702 -4.42234 339 ft 132 kts 75°
2026-05-09 11:25 48.45016 -4.40945 837 ft 135 kts 73°
2026-05-09 11:25 48.45348 -4.39539 1301 ft 147 kts 80°
2026-05-09 11:26 48.45579 -4.38153 2116 ft 134 kts 82°
2026-05-09 11:26 48.45838 -4.36750 2507 ft 155 kts 71°
2026-05-09 11:26 48.46574 -4.35524 2986 ft 172 kts 30°
2026-05-09 11:26 48.47730 -4.35114 3741 ft 166 kts 21°
2026-05-09 11:27 48.48836 -4.34828 4389 ft 170 kts 13°
2026-05-09 11:27 48.50066 -4.34605 4852 ft 182 kts 13°
2026-05-09 11:27 48.51270 -4.34350 5646 ft 173 kts 12°
2026-05-09 11:27 48.52499 -4.34373 6135 ft 188 kts 358°
2026-05-09 11:28 48.53816 -4.34865 6657 ft 199 kts 348°
2026-05-09 11:28 48.55217 -4.35335 7086 ft 211 kts 355°
2026-05-09 11:28 48.56641 -4.35681 7763 ft 211 kts 354°
2026-05-09 11:28 48.58101 -4.36034 8387 ft 214 kts 355°
2026-05-09 11:29 48.59552 -4.36404 9018 ft 215 kts 355°
2026-05-09 11:29 48.61031 -4.36785 9678 ft 217 kts 354°
2026-05-09 11:29 48.62508 -4.37165 10290 ft 221 kts 353°
2026-05-09 11:29 48.64011 -4.37727 10886 ft 225 kts 347°
2026-05-09 11:30 48.65606 -4.38423 11049 ft 251 kts 347°
2026-05-09 11:30 48.67333 -4.39186 11331 ft 268 kts 346°
2026-05-09 11:30 48.69141 -4.39991 11862 ft 273 kts 346°
2026-05-09 11:30 48.70955 -4.40799 12391 ft 276 kts 346°
2026-05-09 11:31 48.72850 -4.41307 12864 ft 276 kts
2026-05-09 11:31 48.74565 -4.40336 13290 ft 265 kts 42°
2026-05-09 11:31 48.75776 -4.38241 13621 ft 264 kts 58°
2026-05-09 11:31 48.76840 -4.35945 14032 ft 266 kts 59°
2026-05-09 11:32 48.77881 -4.33650 14420 ft 269 kts 60°
2026-05-09 11:32 48.78939 -4.31291 14828 ft 271 kts 60°
2026-05-09 11:32 48.79988 -4.28944 15206 ft 273 kts 60°
2026-05-09 11:32 48.81054 -4.26546 15603 ft 275 kts 60°
2026-05-09 11:33 48.82113 -4.24154 16040 ft 277 kts 60°
2026-05-09 11:33 48.83193 -4.21705 16470 ft 280 kts 60°
2026-05-09 11:33 48.85355 -4.16794 17313 ft 283 kts 61°
2026-05-09 11:34 48.86456 -4.14286 17734 ft 286 kts 61°
2026-05-09 11:34 48.87546 -4.11801 18173 ft 287 kts 61°
2026-05-09 11:34 48.88660 -4.09258 18553 ft 289 kts 62°
2026-05-09 11:34 48.89765 -4.06731 18913 ft 292 kts 62°
2026-05-09 11:35 48.90893 -4.04150 19287 ft 294 kts 61°
2026-05-09 11:35 48.92014 -4.01582 19637 ft 296 kts 61°
2026-05-09 11:35 48.93158 -3.98958 19976 ft 298 kts 61°
2026-05-09 11:35 48.94291 -3.96358 20293 ft 299 kts 61°
2026-05-09 11:36 48.95447 -3.93700 20625 ft 301 kts 60°
2026-05-09 11:36 48.96593 -3.91062 20923 ft 303 kts 60°
2026-05-09 11:36 48.97760 -3.88374 21221 ft 305 kts 60°
2026-05-09 11:36 48.98939 -3.85657 21495 ft 307 kts 60°
2026-05-09 11:37 49.00108 -3.82960 21768 ft 309 kts 60°
2026-05-09 11:37 49.01300 -3.80206 22041 ft 311 kts 60°
2026-05-09 11:37 49.02477 -3.77484 22301 ft 312 kts 60°
2026-05-09 11:37 49.03679 -3.74702 22567 ft 314 kts 60°
2026-05-09 11:38 49.04870 -3.71943 22806 ft 316 kts 60°
2026-05-09 11:38 49.06078 -3.69140 23051 ft 317 kts 60°
2026-05-09 11:38 49.07278 -3.66353 23270 ft 317 kts 60°
2026-05-09 11:38 49.08493 -3.63533 23388 ft 317 kts 60°
2026-05-09 11:39 49.09709 -3.60706 23447 ft 319 kts 60°
2026-05-09 11:39 49.10910 -3.57909 23509 ft 319 kts 60°
2026-05-09 11:39 49.12132 -3.55061 23581 ft 319 kts 60°
2026-05-09 11:40 49.14557 -3.49400 23703 ft 320 kts 60°
2026-05-09 11:40 49.15760 -3.46586 23777 ft 320 kts 60°
2026-05-09 11:40 49.16979 -3.43730 23837 ft 320 kts 60°
2026-05-09 11:40 49.18202 -3.40863 23895 ft 321 kts 60°
2026-05-09 11:41 49.19407 -3.38035 23952 ft 321 kts 60°
2026-05-09 11:41 49.20626 -3.35170 23981 ft 320 kts 60°
2026-05-09 11:41 49.21822 -3.32362 23994 ft 316 kts 60°
2026-05-09 11:41 49.23019 -3.29549 23994 ft 313 kts 61°
2026-05-09 11:42 49.24185 -3.26802 23992 ft 310 kts 61°
2026-05-09 11:42 49.25359 -3.24034 23994 ft 307 kts 61°
2026-05-09 11:42 49.26506 -3.21324 23993 ft 305 kts 61°
2026-05-09 11:42 49.27658 -3.18601 23997 ft 303 kts 61°
2026-05-09 11:43 49.28803 -3.15893 23998 ft 301 kts 61°
2026-05-09 11:43 49.29922 -3.13241 23993 ft 298 kts 61°
2026-05-09 11:43 49.31047 -3.10572 23993 ft 296 kts 61°
2026-05-09 11:43 49.32149 -3.07954 23995 ft 295 kts 61°
2026-05-09 11:44 49.33261 -3.05311 23995 ft 293 kts 61°
2026-05-09 11:44 49.34347 -3.02725 23998 ft 291 kts 61°
2026-05-09 11:44 49.35444 -3.00115 23998 ft 289 kts 61°
2026-05-09 11:44 49.36517 -2.97555 24003 ft 288 kts 61°
2026-05-09 11:45 49.37599 -2.94972 23996 ft 286 kts 60°
2026-05-09 11:45 49.38672 -2.92409 24003 ft 284 kts 60°
2026-05-09 11:45 49.39726 -2.89890 23998 ft 283 kts 61°
2026-05-09 11:45 49.40788 -2.87348 24000 ft 281 kts 60°
2026-05-09 11:46 49.41826 -2.84862 23996 ft 279 kts 60°
2026-05-09 11:46 49.42872 -2.82349 24006 ft 277 kts 60°
2026-05-09 11:46 49.43901 -2.79882 24005 ft 276 kts 61°
2026-05-09 11:46 49.44936 -2.77398 24007 ft 275 kts 61°
2026-05-09 11:47 49.45968 -2.74914 24005 ft 273 kts 61°
2026-05-09 11:47 49.46979 -2.72481 24000 ft 272 kts 61°
2026-05-09 11:47 49.47998 -2.70025 24003 ft 271 kts 61°
2026-05-09 11:47 49.48999 -2.67612 24001 ft 269 kts 61°
2026-05-09 11:48 49.50007 -2.65179 24004 ft 268 kts 61°
2026-05-09 11:48 49.50994 -2.62794 24005 ft 266 kts 61°
2026-05-09 11:48 49.51991 -2.60384 24008 ft 265 kts 60°
2026-05-09 11:48 49.52966 -2.58023 24008 ft 263 kts 60°
2026-05-09 11:49 49.53952 -2.55634 24005 ft 263 kts 61°
2026-05-09 11:49 49.54919 -2.53288 24005 ft 262 kts 60°
2026-05-09 11:49 49.55900 -2.50909 24013 ft 262 kts 60°
2026-05-09 11:49 49.56863 -2.48570 24015 ft 261 kts 60°
2026-05-09 11:50 49.57838 -2.46199 24015 ft 261 kts 60°
2026-05-09 11:50 49.58813 -2.43827 24013 ft 261 kts 60°
2026-05-09 11:50 49.59771 -2.41492 24011 ft 260 kts 60°
2026-05-09 11:50 49.60741 -2.39127 24011 ft 260 kts 60°
2026-05-09 11:51 49.61696 -2.36797 24017 ft 260 kts 60°
2026-05-09 11:51 49.62664 -2.34433 24018 ft 259 kts 61°
2026-05-09 11:51 49.63628 -2.32077 24017 ft 259 kts 61°
2026-05-09 11:51 49.64578 -2.29754 24015 ft 258 kts 61°
2026-05-09 11:52 49.65526 -2.27433 24012 ft 258 kts 62°
2026-05-09 11:52 49.66486 -2.25079 24019 ft 258 kts 61°
2026-05-09 11:52 49.67442 -2.22734 24018 ft 257 kts 61°
2026-05-09 11:52 49.68385 -2.20422 24025 ft 257 kts 61°
2026-05-09 11:53 49.69339 -2.18074 24022 ft 256 kts 61°
2026-05-09 11:53 49.70277 -2.15770 24022 ft 257 kts 60°
2026-05-09 11:53 49.71231 -2.13423 24024 ft 257 kts 60°
2026-05-09 11:53 49.72195 -2.11128 24018 ft 258 kts 55°
2026-05-09 11:54 49.73561 -2.09317 24029 ft 258 kts 34°
2026-05-09 11:54 49.75109 -2.07873 24029 ft 259 kts 32°
2026-05-09 11:54 49.76639 -2.06453 24022 ft 260 kts 32°
2026-05-09 11:54 49.78199 -2.05005 24026 ft 262 kts 32°
2026-05-09 11:55 49.79750 -2.03559 24031 ft 264 kts 32°
2026-05-09 11:56 49.87827 -1.95980 23679 ft 283 kts 32°
2026-05-09 11:56 49.89512 -1.94392 23425 ft 291 kts 32°
2026-05-09 11:56 49.91256 -1.92745 22982 ft 293 kts 32°
2026-05-09 11:57 49.92981 -1.91124 22515 ft 293 kts 32°
2026-05-09 11:57 49.94724 -1.89481 22040 ft 293 kts 32°
2026-05-09 11:57 49.96469 -1.87834 21574 ft 293 kts 32°
2026-05-09 11:57 49.98187 -1.86208 21117 ft 292 kts 32°
2026-05-09 11:58 49.99970 -1.84709 20630 ft 289 kts 19°
2026-05-09 11:58 50.01896 -1.84165 20171 ft 282 kts
2026-05-09 11:58 50.03841 -1.83914 19694 ft 277 kts
2026-05-09 11:58 50.05730 -1.83678 19181 ft 274 kts
2026-05-09 11:59 50.07621 -1.83440 18661 ft 270 kts
2026-05-09 11:59 50.09462 -1.83204 18160 ft 267 kts
2026-05-09 11:59 50.11311 -1.82964 17648 ft 264 kts
2026-05-09 11:59 50.13132 -1.82725 17138 ft 261 kts
2026-05-09 12:00 50.14880 -1.82258 16632 ft 257 kts 15°
2026-05-09 12:00 50.16589 -1.81504 16125 ft 254 kts 17°
2026-05-09 12:00 50.18280 -1.80733 15605 ft 251 kts 17°
2026-05-09 12:00 50.19929 -1.79982 15108 ft 249 kts 17°
2026-05-09 12:01 50.21585 -1.79229 14599 ft 247 kts 18°
2026-05-09 12:01 50.23225 -1.78484 14128 ft 244 kts 18°
2026-05-09 12:01 50.24833 -1.77752 13682 ft 243 kts 18°
2026-05-09 12:01 50.26462 -1.77013 13223 ft 243 kts 18°
2026-05-09 12:02 50.28068 -1.76286 12785 ft 244 kts 18°
2026-05-09 12:02 50.29698 -1.75549 12328 ft 243 kts 18°
2026-05-09 12:02 50.31300 -1.74824 11888 ft 242 kts 18°
2026-05-09 12:02 50.32916 -1.74092 11440 ft 241 kts 18°
2026-05-09 12:03 50.34506 -1.73373 11013 ft 240 kts 18°
2026-05-09 12:03 50.36115 -1.72644 10558 ft 240 kts 18°
2026-05-09 12:03 50.37716 -1.71918 10092 ft 239 kts 18°
2026-05-09 12:03 50.39291 -1.71204 9629 ft 238 kts 18°
2026-05-09 12:04 50.40886 -1.70480 9172 ft 238 kts 18°
2026-05-09 12:04 50.42453 -1.69768 8737 ft 237 kts 18°
2026-05-09 12:04 50.44040 -1.69047 8311 ft 235 kts 18°
2026-05-09 12:04 50.45591 -1.68343 7904 ft 234 kts 18°
2026-05-09 12:05 50.47154 -1.67632 7467 ft 233 kts 19°
2026-05-09 12:05 50.48675 -1.66940 7195 ft 226 kts 19°
2026-05-09 12:05 50.50153 -1.66206 7098 ft 216 kts 24°
2026-05-09 12:05 50.51501 -1.65301 7064 ft 210 kts 26°
2026-05-09 12:06 50.52831 -1.64368 7037 ft 206 kts 27°
2026-05-09 12:06 50.54125 -1.63454 6913 ft 208 kts 27°
2026-05-09 12:06 50.55481 -1.62488 6656 ft 216 kts 27°
2026-05-09 12:06 50.56861 -1.61526 6414 ft 220 kts 26°
2026-05-09 12:07 50.58263 -1.60560 6154 ft 219 kts 26°
2026-05-09 12:07 50.59640 -1.59610 5898 ft 218 kts 26°
2026-05-09 12:07 50.61032 -1.58648 5646 ft 217 kts 26°
2026-05-09 12:07 50.62399 -1.57701 5400 ft 216 kts 26°
2026-05-09 12:08 50.63784 -1.56741 5151 ft 216 kts 26°
2026-05-09 12:08 50.65145 -1.55797 4914 ft 215 kts 26°
2026-05-09 12:08 50.66518 -1.54842 4657 ft 213 kts 27°
2026-05-09 12:08 50.67827 -1.53869 4390 ft 207 kts 30°
2026-05-09 12:09 50.69099 -1.52840 4132 ft 202 kts 30°
2026-05-09 12:09 50.70341 -1.51830 3901 ft 198 kts 30°
2026-05-09 12:09 50.71545 -1.50851 3670 ft 196 kts 30°
2026-05-09 12:10 50.75165 -1.47919 2936 ft 193 kts 30°
2026-05-09 12:10 50.76348 -1.46965 2694 ft 192 kts 30°
2026-05-09 12:10 50.77536 -1.46007 2561 ft 188 kts 30°
2026-05-09 12:11 50.78677 -1.45087 2505 ft 180 kts 30°
2026-05-09 12:11 50.79774 -1.44205 2493 ft 173 kts 30°
2026-05-09 12:11 50.80882 -1.43471 2449 ft 175 kts 24°
2026-05-09 12:11 50.82035 -1.42822 2255 ft 176 kts 23°
2026-05-09 12:12 50.83163 -1.42207 2009 ft 170 kts 22°
2026-05-09 12:12 50.84267 -1.41606 1819 ft 161 kts 22°
2026-05-09 12:12 50.85312 -1.41071 1658 ft 158 kts 19°
2026-05-09 12:12 50.86331 -1.40630 1679 ft 147 kts 21°
2026-05-09 12:13 50.87297 -1.40116 1486 ft 150 kts 25°
2026-05-09 12:13 50.88264 -1.39501 1365 ft 146 kts 26°
2026-05-09 12:13 50.89194 -1.38946 1189 ft 146 kts 21°
2026-05-09 12:13 50.90162 -1.38439 950 ft 144 kts 21°
2026-05-09 12:14 50.91090 -1.37908 705 ft 146 kts 24°
2026-05-09 12:14 50.92017 -1.37372 525 ft 135 kts 24°
2026-05-09 12:14 50.92871 -1.36863 292 ft 131 kts 19°
2026-05-09 12:14 50.93721 -1.36408 151 ft 124 kts 24°
2026-05-09 12:15 50.94518 -1.35959 45 ft 119 kts 24°
2026-05-09 12:15 50.95233 -1.35563 45 ft 89 kts 19°
2026-05-09 12:15 50.95615 -1.35330 47 ft 30 kts 18°
2026-05-09 12:15 50.95714 -1.35292 47 ft 4 kts 289°
2026-05-09 12:16 50.95692 -1.35308 47 ft 7 kts 198°
2026-05-09 12:16 50.95614 -1.35355 47 ft 16 kts 200°
2026-05-09 12:16 50.95480 -1.35429 45 ft 23 kts 199°
2026-05-09 12:16 50.95340 -1.35498 45 ft 17 kts 201°
2026-05-09 12:17 50.95240 -1.35554 45 ft 13 kts 199°
2026-05-09 12:17 50.95157 -1.35602 45 ft 11 kts 199°
2026-05-09 12:17 50.95087 -1.35643 46 ft 9 kts 201°
2026-05-09 12:17 50.95034 -1.35682 47 ft 7 kts 226°
2026-05-09 12:18 50.95026 -1.35757 48 ft 7 kts 283°
2026-05-09 12:18 50.95045 -1.35845 48 ft 9 kts 289°
2026-05-09 12:18 50.95039 -1.35946 48 ft 11 kts 221°
2026-05-09 12:18 50.94998 -1.35971 48 ft 0 kts 204°
2026-05-09 12:19 50.94990 -1.35991 48 ft 1 kts 253°
2026-05-09 12:19 50.94994 -1.36028 48 ft 0 kts 289°
2026-05-09 12:19 50.94996 -1.36037 48 ft 1 kts 290°
2026-05-09 12:19 50.94997 -1.36040 48 ft 0 kts 290°